Regional Weather Roundup
Issued by NWS Binghamton, NY

Home | Current Version | Previous Version | Text Only | Print | Product List | Glossary On
Versions: 1 2 3 4 5 6 7 8 9 10 11 12 13 14 15 16 17 18 19 20 21 22 23 24 25 26 27 28 29 30 31 32 33 34 35 36 37 38 39 40 41 42 43 44 45 46 47 48 49 50
000
ASUS41 KBGM 270910
RWRBGM

REGIONAL WEATHER ROUNDUP
NATIONAL WEATHER SERVICE BINGHAMTON NY
500 AM EDT THU APR 27 2017

Note: "fair" indicates few or no clouds below 12,000 feet with no
significant weather and/or obstructions to visibility.

* = Station(s) that does not report precipitation, such as rain,
snow, etc, also no thunder or fog.

NYZ009-015>018-022>025-036-037-044>046-055>057-062-271000
...Central New York...

CITY           SKY/WX    TMP DP  RH WIND       PRES   REMARKS
Binghamton     CLOUDY    55  54  96 SE8       29.82R
Cortland       FAIR      54  54 100 CALM      29.81R
Dansville      CLEAR     58  53  84 S8        29.74S
Elmira         CLEAR     51  48  89 CALM      29.78S FOG
Seneca Falls   SUNNY     61  55  82 S10       29.75S
Ithaca         CLEAR     58  55  90 SE6       29.80R
Hamilton       CLOUDY    57  54  88 S8        29.82S
Monticello     CLOUDY    55  55 100 E3        29.87S VSB 1/4
Norwich        CLOUDY    57  55  94 S3        29.83S
Penn Yan       CLEAR     57  52  83 S3        29.76S
Rome           CLEAR     53  53 100 SE7       29.82R
Sidney         CLOUDY    57  57 100 CALM      29.83S
Syracuse       PTCLDY    55  54  96 E8        29.75S
$$

PAZ038>040-043-044-047-048-072-271000
...Northeast Pennsylvania...

CITY           SKY/WX    TMP DP  RH WIND       PRES   REMARKS
Hazleton       CLOUDY    57  55  94 SE5       29.87R FOG
Scranton       CLOUDY    57  55  93 CALM      29.83R
$$
&&
KEY
WCI = Wind Chill Index
VSB = Visibility
HX  = Heat Index
$$



USA.gov is the U.S. government's official web portal to all federal, state and local government web resources and services.